Location: Miles
(41.4492°N, 81.6087°W)
Time: 06:07:37
(UTC+00:00)

Courier 1B - Pass Details

Date: 21 September 2024
Orbit: 962 x 1208 km, 28.3° (Epoch: 06 October)

Event Time Altitude Azimuth Distance (km) Brightness Sun altitude
Rises 20:36:50 0° 256° (WSW) 3,825 11.7 29.4°
Reaches altitude 10° 20:40:06 10° 242° (WSW) 2,913 11.7 28.9°
Maximum altitude 20:45:30 23° 193° (SSW) 2,164 10.1 28.0°
Drops below altitude 10° 20:51:07 10° 144° (SE) 3,046 10.1 27.0°
Sets 20:54:38 0° 131° (SE) 4,041 10.5 26.4°
